Change the Weather History Date:

Thursday, May 9, 2013

  Actual Average (KPDC) Record (KPDC)
Temperature  
Mean Temperature 58 °F -  
Max Temperature 64 °F 72 °F 89 °F (1979)
Min Temperature 53 °F 46 °F 31 °F (1980)
Degree Days  
Heating Degree Days 6    
Growing Degree Days 8 (Base 50)    
Moisture  
Dew Point 57 °F    
Average Humidity 90    
Maximum Humidity 94    
Minimum Humidity 78    
Precipitation  
Precipitation 0.40 in - - ()
Sea Level Pressure  
Sea Level Pressure 29.91 in    
Wind  
Wind Speed 3 mph (NE)    
Max Wind Speed 12 mph    
Max Gust Speed 23 mph    
Visibility 6 miles    
Events Rain    
Averages and records for this station are not official NWS values.
T = Trace of Precipitation, MM = Missing Value Source: NWS Daily Summary

Daily Weather History Graph

Daily Weather History Graph

Search for Another Location

Airport or City:

Trip Planner

Search our weather history database for the weather conditions in past years. The results will help you decide how hot, cold, wet, or windy it might be!

Date:

Astronomy

May. 09, 2013 Rise Set
Actual Time 5:45 AM CDT 8:13 PM CDT
Civil Twilight 5:13 AM CDT 8:45 PM CDT
Nautical Twilight 4:33 AM CDT 9:25 PM CDT
Astronomical Twilight 3:48 AM CDT 10:10 PM CDT
Moon 5:30 AM CDT (5/9) 8:08 PM CDT (5/9)
Length of Visible Light 15h 32m
Length of Day
14h 27m
Waning Crescent, 0% of the Moon is Illuminated
May 9
Waning Crescent
May 9
New
May 17
First Quarter
May 24
Full
May 31
Last Quarter

Hourly Weather History & Observations

Time (CDT) Temp. Dew Point Humidity Pressure Visibility Wind Dir Wind Speed Gust Speed Precip Events Conditions
12:53 AM 63.0 °F 55.9 °F 78% 29.96 in 10.0 mi Calm Calm - 0.00 in   Overcast
1:53 AM 62.1 °F 55.9 °F 80% 29.95 in 10.0 mi Calm Calm - 0.00 in Rain Light Rain
2:53 AM 61.0 °F 57.0 °F 87% 29.95 in 10.0 mi Calm Calm - 0.00 in   Overcast
3:53 AM 60.1 °F 57.0 °F 90% 29.94 in 10.0 mi Calm Calm - 0.01 in   Overcast
4:53 AM 60.1 °F 57.0 °F 90% 29.93 in 8.0 mi NNE 3.5 mph - N/A   Overcast
5:53 AM 60.1 °F 57.0 °F 90% 29.94 in 10.0 mi WNW 3.5 mph - N/A   Overcast
6:53 AM 60.1 °F 57.0 °F 90% 29.94 in 9.0 mi Calm Calm - N/A   Overcast
7:40 AM 59.0 °F 57.2 °F 94% 29.95 in 2.0 mi Calm Calm - 0.06 in Rain Rain
7:49 AM 60.8 °F 57.2 °F 88% 29.95 in 6.0 mi West 3.5 mph - 0.06 in Rain Light Rain
7:53 AM 60.1 °F 57.0 °F 90% 29.95 in 7.0 mi Calm Calm - 0.06 in Rain Light Rain
8:53 AM 61.0 °F 57.9 °F 90% 29.95 in 7.0 mi Calm Calm - 0.01 in Rain Light Rain
9:53 AM 61.0 °F 59.0 °F 93% 29.94 in 6.0 mi Calm Calm - 0.01 in Rain Light Rain
10:53 AM 62.1 °F 59.0 °F 90% 29.94 in 5.0 mi NE 3.5 mph - 0.01 in Rain Light Rain
12:27 PM 62.6 °F 60.8 °F 94% 29.93 in 2.5 mi NNE 4.6 mph - 0.06 in Rain Rain
12:43 PM 62.6 °F 60.8 °F 94% 29.93 in 4.0 mi NNE 4.6 mph - 0.07 in Rain Light Rain
12:53 PM 62.1 °F 60.1 °F 93% 29.93 in 3.0 mi NNE 4.6 mph - 0.07 in Rain Light Rain
1:01 PM 62.6 °F 60.8 °F 94% 29.93 in 4.0 mi NNE 4.6 mph - 0.00 in Rain Light Rain
1:21 PM 62.6 °F 60.8 °F 94% 29.93 in 4.0 mi NE 3.5 mph - 0.01 in Rain Light Rain
1:42 PM 62.6 °F 60.8 °F 94% 29.92 in 4.0 mi NE 4.6 mph - 0.01 in Rain Light Rain
1:53 PM 63.0 °F 60.1 °F 90% 29.92 in 3.0 mi ENE 5.8 mph - 0.02 in Rain Rain
2:03 PM 64.4 °F 60.8 °F 88% 29.91 in 5.0 mi NE 3.5 mph - 0.00 in Rain Light Rain
2:15 PM 62.6 °F 60.8 °F 94% 29.91 in 5.0 mi NE 6.9 mph - 0.00 in Rain Light Rain
2:28 PM 62.6 °F 59.0 °F 88% 29.91 in 4.0 mi NE 6.9 mph - 0.00 in Rain Light Rain
2:35 PM 62.6 °F 59.0 °F 88% 29.91 in 4.0 mi NE 6.9 mph - 0.00 in Rain Light Rain
2:46 PM 62.6 °F 59.0 °F 88% 29.90 in 4.0 mi ENE 5.8 mph - 0.01 in Rain Light Rain
3:01 PM 62.6 °F 59.0 °F 88% 29.90 in 4.0 mi NE 4.6 mph - 0.00 in Rain Light Rain
3:34 PM 62.6 °F 59.0 °F 88% 29.89 in 4.0 mi NE 3.5 mph - 0.00 in Rain Light Rain
3:53 PM 62.1 °F 59.0 °F 90% 29.88 in 5.0 mi NE 3.5 mph - 0.01 in Rain Light Rain
4:12 PM 62.6 °F 59.0 °F 88% 29.88 in 5.0 mi East 4.6 mph - 0.00 in   Overcast
4:53 PM 62.1 °F 59.0 °F 90% 29.87 in 5.0 mi NE 5.8 mph - 0.00 in   Overcast
5:10 PM 62.6 °F 57.2 °F 82% 29.87 in 4.0 mi ENE 8.1 mph - 0.00 in Rain Light Rain
5:41 PM 60.8 °F 57.2 °F 88% 29.86 in 6.0 mi ENE 4.6 mph - 0.00 in   Overcast
5:53 PM 61.0 °F 57.9 °F 90% 29.86 in 6.0 mi Variable 6.9 mph - 0.00 in   Overcast
6:12 PM 60.8 °F 57.2 °F 88% 29.86 in 8.0 mi NE 5.8 mph - N/A   Overcast
6:19 PM 60.8 °F 57.2 °F 88% 29.86 in 8.0 mi NE 6.9 mph - N/A   Overcast
6:24 PM 60.8 °F 57.2 °F 88% 29.86 in 7.0 mi ENE 5.8 mph - 0.00 in Rain Light Rain
6:33 PM 60.8 °F 57.2 °F 88% 29.85 in 6.0 mi NE 4.6 mph - 0.00 in Rain Light Rain
6:53 PM 60.1 °F 57.0 °F 90% 29.86 in 6.0 mi ENE 6.9 mph - 0.00 in Rain Light Rain
7:53 PM 60.1 °F 57.0 °F 90% 29.86 in 4.0 mi NE 5.8 mph - 0.01 in Rain Light Rain
8:33 PM 57.2 °F 55.4 °F 94% 29.87 in 2.5 mi NE 5.8 mph - 0.06 in Rain Heavy Rain
8:51 PM 57.2 °F 55.4 °F 94% 29.88 in 3.0 mi Variable 6.9 mph - 0.09 in Rain Rain
8:53 PM 57.9 °F 55.0 °F 90% 29.88 in 3.0 mi NNE 9.2 mph - 0.09 in Rain Rain
9:10 PM 55.4 °F 51.8 °F 88% 29.89 in 3.0 mi NE 11.5 mph 23.0 mph 0.05 in Rain Heavy Rain
9:36 PM 53.6 °F 51.8 °F 94% 29.90 in 6.0 mi NE 10.4 mph 21.9 mph 0.08 in Rain Light Rain
9:53 PM 54.0 °F 51.1 °F 90% 29.91 in 6.0 mi ENE 8.1 mph 16.1 mph 0.09 in Rain Light Rain
10:53 PM 54.0 °F 51.1 °F 90% 29.90 in 10.0 mi NE 5.8 mph - 0.01 in Rain Light Rain
11:46 PM 53.6 °F 50.0 °F 88% 29.90 in 10.0 mi ENE 9.2 mph 16.1 mph 0.01 in Rain Light Rain